GEFSSGP_con_probscp_030.txt.gz
Probability
0 0 0 0 0 0 0 0 0 0 0 0 0 0 0 0 0 0 0 0 0 0 0 0 0 0 0 0 0 0 0 0 0 0 0 0 0 0 0 0 0 0 0 0 0 0 0 0 0
0 0 0 0 0 0 0 0 0 0 0 0 0 0 0 0 0 0 0 0 0 0 0 0 0 0 0 0 0 0 0 0 0 0 0 0 0 0 0 0 0 0 0 0 0 0 0 0 0
0 0 0 0 0 0 0 0 0 0 0 0 0 0 0 0 0 0 0 0 0 0 0 0 1 1 1 0 0 0 0 0 0 0 0 0 0 0 0 0 0 0 0 0 0 0 0 0 0
0 0 0 0 0 0 0 0 0 0 0 0 0 0 0 0 0 0 0 0 0 0 0 1 2 3 2 1 0 0 0 0 0 0 0 0 0 0 0 0 0 0 0 0 0 0 0 0 0
0 0 0 0 0 0 0 0 0 0 0 0 0 0 0 0 0 0 0 0 0 0 0 2 4 7 7 6 3 1 1 0 0 0 0 0 0 0 0 0 0 0 0 0 0 0 0 0 0
0 0 0 0 0 0 0 0 0 0 0 0 0 0 0 0 0 0 0 0 0 0 1 4 9 12 13 11 7 2 1 1 0 0 0 0 0 0 0 0 0 0 0 0 0 0 0 0 0
0 0 0 0 0 0 0 0 0 0 0 0 0 0 0 0 0 0 0 0 0 1 3 7 10 12 13 11 7 4 2 1 0 0 0 0 0 0 0 0 0 0 0 0 0 0 0 0 0
0 0 0 0 0 0 0 0 0 0 0 0 0 0 0 0 0 0 0 0 0 1 3 5 6 6 6 5 4 3 2 1 0 0 0 0 0 0 0 0 0 0 0 0 0 0 0 0 0
0 0 0 0 0 0 0 0 0 1 1 1 0 0 0 0 0 1 3 4 3 2 2 3 4 3 2 2 1 1 1 0 0 0 0 0 0 0 0 0 0 0 0 1 2 2 2 0 0
0 0 0 0 0 0 0 0 0 1 3 2 0 0 0 0 2 5 10 13 10 5 3 4 5 5 4 2 0 0 0 0 0 0 0 1 0 0 0 0 0 0 1 2 5 7 5 2 1
0 0 0 0 0 0 0 0 0 1 3 3 2 1 1 0 3 9 17 26 24 14 7 8 9 9 6 2 0 0 0 0 0 0 0 0 0 0 0 0 0 1 4 8 13 15 10 4 2
0 0 0 0 0 0 0 0 0 0 2 5 6 4 2 1 3 8 21 38 45 36 23 17 17 13 5 1 1 1 0 0 0 0 0 1 2 2 2 2 3 7 17 27 30 27 18 8 3
0 0 0 0 0 0 0 0 0 1 5 12 15 10 5 3 5 9 23 49 67 66 54 41 34 24 14 11 12 11 7 5 4 4 4 7 12 14 12 11 15 26 43 55 54 45 30 16 7
0 0 0 0 0 0 0 0 0 1 9 21 24 18 12 11 15 18 30 55 78 87 81 72 61 50 42 42 44 42 35 29 27 25 22 28 40 43 38 36 42 56 71 78 72 61 47 33 24
0 0 0 0 0 0 0 0 0 2 10 24 32 31 27 30 36 41 48 64 82 91 93 90 84 78 74 76 78 77 72 66 61 57 54 61 73 77 71 69 73 82 88 89 83 73 63 51 42
0 0 0 0 0 0 0 0 0 2 10 24 39 49 53 58 64 69 74 80 87 92 94 92 90 87 87 90 92 93 90 84 78 73 74 80 88 92 91 90 92 94 94 92 88 82 71 58 50
0 0 0 0 0 0 0 0 0 3 13 28 45 64 78 83 86 89 90 89 90 90 90 87 85 85 87 89 90 91 89 84 78 71 68 72 81 89 93 95 96 95 92 90 87 82 71 58 51
0 0 0 0 0 0 0 0 0 4 15 33 54 75 89 93 93 92 88 84 82 82 81 80 80 82 85 85 86 88 88 86 81 72 63 61 68 80 88 93 94 91 87 84 79 73 65 55 50
0 0 0 0 0 0 0 0 0 3 14 35 62 82 90 90 85 79 73 69 66 66 67 71 74 75 77 78 78 81 83 84 84 81 75 68 67 74 82 88 89 87 82 77 72 66 59 52 49
0 0 0 0 0 0 0 0 0 2 12 35 63 81 84 79 71 63 54 48 45 45 47 51 54 58 61 62 61 62 68 74 79 83 83 79 75 76 80 82 82 80 75 72 69 64 59 53 49
0 0 0 0 0 0 0 0 0 3 12 30 52 65 64 58 52 44 34 27 25 25 26 28 32 37 40 38 36 40 50 60 68 72 75 77 76 76 78 78 75 71 68 66 65 62 59 53 47
0 0 0 0 0 0 0 0 0 2 9 20 29 33 32 30 27 21 15 13 13 14 18 23 26 26 25 22 20 24 34 42 48 52 56 60 64 66 69 71 68 65 63 61 58 55 54 47 39
0 0 0 0 0 0 0 0 0 1 4 7 9 9 9 9 8 6 5 6 7 11 19 28 31 27 23 18 14 15 18 21 24 26 29 32 37 45 53 58 62 62 61 58 53 48 44 38 30
0 0 0 0 0 0 0 0 0 0 0 1 1 1 1 1 1 2 3 4 6 9 17 25 28 27 24 20 16 11 7 6 7 7 8 9 13 21 33 44 53 58 59 55 47 38 33 28 24
0 0 0 0 0 0 0 0 0 0 0 0 0 0 0 0 1 1 2 4 5 7 11 16 21 23 23 21 17 11 5 2 1 1 1 1 2 7 15 26 38 46 48 45 37 28 22 20 18
0 0 0 0 0 0 0 0 0 0 0 0 0 0 0 0 1 2 3 4 4 5 6 10 15 17 18 18 15 10 5 1 0 0 0 0 0 2 5 11 20 28 32 32 27 21 16 13 12
0 0 0 0 0 0 0 0 0 0 0 0 0 0 0 0 1 1 2 2 2 3 4 7 10 11 11 11 8 6 4 2 1 0 0 0 0 0 1 3 7 13 17 19 18 15 11 9 8
0 0 0 0 0 0 0 0 0 0 0 0 0 0 0 0 0 0 1 1 1 1 2 4 6 6 6 5 4 3 3 2 1 0 0 0 0 0 0 0 2 4 6 7 8 6 4 5 5
0 0 0 0 0 0 0 0 0 0 0 0 0 0 0 0 0 0 0 0 0 0 1 1 2 4 4 3 3 3 3 1 0 0 0 0 0 0 0 0 0 1 1 1 1 1 0 1 2
0 0 0 0 0 0 0 0 0 0 0 0 0 0 0 0 0 0 0 0 0 0 0 0 1 3 4 3 3 3 2 1 0 0 0 0 0 0 0 0 0 0 0 0 0 0 0 0 0

GEFSSGP_con_probscp_036.txt.gz
Probability
0 0 0 0 0 0 0 0 0 0 0 0 0 0 0 0 0 0 0 0 0 0 0 0 0 0 0 0 0 0 0 0 0 0 0 0 0 0 0 0 0 0 0 0 0 0 0 0 0
0 0 0 0 0 0 0 0 0 0 0 0 0 0 0 0 0 0 0 0 0 0 0 0 0 0 0 0 0 0 0 0 0 0 0 0 0 0 0 0 0 0 0 0 0 0 0 0 0
0 0 0 0 0 0 0 0 0 0 0 0 0 0 0 0 0 0 0 0 0 0 0 0 0 0 0 0 0 0 0 0 0 0 0 0 0 0 0 0 0 0 0 0 0 0 0 0 0
0 0 0 0 0 0 0 0 0 0 0 0 0 0 0 0 0 0 0 0 0 0 0 0 0 1 1 1 0 0 0 0 0 0 0 0 0 0 0 0 0 0 0 0 0 0 0 0 0
0 0 0 0 0 0 0 0 0 0 0 0 0 0 0 0 0 0 0 0 0 0 0 0 1 2 3 2 1 0 0 0 0 0 0 0 0 0 0 0 0 0 0 0 0 0 0 0 0
0 0 0 0 0 0 0 0 0 0 0 0 0 0 0 0 0 0 0 0 0 0 0 0 2 3 4 3 1 0 0 0 0 0 0 0 0 0 0 0 0 0 0 0 0 0 0 0 0
0 0 0 0 0 0 0 0 0 0 0 0 0 0 0 0 0 0 0 0 0 0 0 0 1 2 3 2 1 0 0 0 0 0 0 0 0 0 0 0 0 0 0 0 0 0 0 0 0
0 0 0 0 0 0 0 0 0 0 0 0 0 0 0 0 0 0 0 0 0 0 0 1 1 1 2 3 5 5 3 1 1 0 0 0 0 0 0 0 0 0 0 0 0 0 0 0 0
0 0 0 0 0 0 0 0 0 0 0 0 0 0 0 0 0 0 0 0 0 1 1 3 4 5 6 10 14 14 9 5 4 2 1 0 0 0 0 0 0 0 0 0 0 0 0 0 0
0 0 0 0 0 0 0 0 0 0 0 0 0 0 1 1 1 0 0 0 0 1 2 4 6 10 17 24 26 23 18 13 10 7 3 1 0 0 0 0 0 0 0 0 0 0 0 1 1
0 0 0 0 0 0 0 0 0 0 0 0 0 2 4 5 3 0 0 0 0 1 1 3 7 15 26 35 34 31 29 25 20 15 10 6 5 4 3 2 1 1 2 2 2 2 2 3 5
0 0 0 0 0 0 0 0 0 0 0 0 2 7 11 10 4 1 0 0 0 0 0 3 10 19 28 33 31 32 37 36 31 28 25 25 23 19 16 13 10 7 8 9 9 7 7 9 11
0 0 0 0 0 0 0 0 0 0 0 0 4 11 15 11 4 1 1 2 3 2 2 6 15 23 28 29 26 27 31 33 32 31 36 45 47 40 33 28 24 21 22 25 27 23 20 19 19
0 0 0 0 0 0 0 0 0 0 2 5 9 14 15 9 4 2 4 9 11 10 9 10 16 23 27 28 25 20 21 23 22 23 32 47 57 55 48 42 41 41 43 46 48 44 38 34 30
0 0 0 0 0 0 0 0 0 2 7 14 20 23 20 13 7 6 9 15 21 21 20 18 18 21 25 27 24 19 17 19 21 22 28 40 53 61 61 59 60 62 63 63 61 58 54 48 44
0 0 0 0 0 0 0 1 3 10 20 28 34 38 34 27 22 20 21 25 31 35 34 32 30 30 32 32 30 28 29 31 33 36 41 46 55 66 72 74 75 76 77 74 71 67 62 58 56
0 0 0 0 0 0 1 4 10 23 36 44 49 52 52 49 46 44 44 44 47 51 51 49 48 48 48 46 43 44 46 46 46 50 55 57 61 69 77 81 81 81 83 82 78 72 65 61 60
0 0 0 0 0 0 2 6 15 30 46 55 59 62 64 63 60 59 60 60 60 59 56 53 50 49 48 49 49 51 53 51 49 51 54 55 56 61 70 78 80 80 82 82 78 71 64 58 56
0 0 0 0 0 0 2 5 11 24 37 48 57 64 67 62 56 53 53 52 50 45 41 38 33 31 33 37 39 41 41 39 37 37 38 38 39 42 52 63 68 71 75 75 73 68 61 55 53
0 0 0 0 0 0 1 2 5 11 22 34 47 57 59 51 42 37 34 30 27 24 21 19 17 17 20 23 25 26 24 21 19 19 19 19 20 22 29 39 48 56 62 64 64 62 55 50 49
0 0 0 0 0 0 0 1 1 5 14 25 36 44 43 36 26 21 17 14 11 10 9 9 10 11 12 14 17 17 13 9 7 6 6 6 7 8 12 19 28 37 46 52 55 54 48 42 39
0 0 0 0 0 0 0 0 0 3 11 17 23 27 26 20 14 10 9 7 5 4 4 5 6 7 8 10 13 12 8 4 2 1 1 1 1 2 4 8 13 20 28 36 41 44 41 37 34
0 0 0 0 0 0 0 0 0 1 4 7 9 11 11 8 5 4 4 2 1 0 1 2 4 4 5 8 9 6 3 1 0 0 0 0 0 0 1 3 5 9 13 17 25 33 37 38 38
0 0 0 0 0 0 0 0 0 0 0 1 1 2 2 2 2 1 1 1 0 0 1 2 3 3 4 5 5 2 1 0 0 0 0 0 0 0 0 1 1 3 4 6 12 23 33 38 40
0 0 0 0 0 0 0 0 0 0 0 0 0 0 0 0 0 0 0 0 0 0 0 2 3 3 2 2 1 0 0 0 0 0 0 0 0 0 0 0 0 1 1 3 7 15 24 31 34
0 0 0 0 0 0 0 0 0 0 0 0 0 0 0 0 0 0 0 0 0 0 1 2 3 2 1 0 0 0 0 0 0 0 0 0 0 0 0 0 0 0 1 2 5 9 14 20 24
0 0 0 0 0 0 0 0 0 0 0 0 0 0 0 0 0 0 0 0 0 0 1 3 3 2 1 0 0 0 0 0 0 0 0 0 0 0 0 0 0 0 1 2 3 5 7 10 12
0 0 0 0 0 0 0 0 0 0 0 0 0 0 0 0 0 0 0 0 0 0 0 1 2 2 1 0 0 0 0 0 0 0 0 0 0 0 0 0 0 0 0 1 1 3 4 4 5
0 0 0 0 0 0 0 0 0 0 0 0 0 0 0 0 0 0 0 0 0 0 0 0 1 1 0 0 0 0 0 0 0 0 0 0 0 0 0 0 0 0 0 0 0 1 1 2 2
0 0 0 0 0 0 0 0 0 0 0 0 0 0 0 0 0 0 0 0 0 0 0 0 0 0 0 0 0 0 0 0 0 0 0 0 0 0 0 0 0 0 0 0 0 0 0 0 1

GEFSSGP_con_probscp_042.txt.gz
Probability
0 0 0 0 0 0 0 0 0 0 0 0 0 0 0 0 0 0 0 0 0 0 0 0 0 0 0 0 0 0 0 0 0 0 0 0 0 0 0 0 0 0 0 0 0 0 0 0 0
0 0 0 0 0 0 0 0 0 0 0 0 0 0 0 0 0 0 0 0 0 0 0 0 0 0 0 0 0 0 0 0 0 0 0 0 0 0 0 0 0 0 0 0 0 0 0 0 0
0 0 0 0 0 0 0 0 0 0 0 0 0 0 0 0 0 0 0 0 0 0 0 0 0 0 0 0 0 0 0 0 0 0 0 0 0 0 0 0 0 0 0 0 0 0 0 0 0
0 0 0 0 0 0 0 0 0 0 0 0 0 0 0 0 0 0 0 0 0 0 0 0 0 0 0 0 0 0 0 0 0 0 0 0 0 0 0 0 0 0 0 0 0 0 0 0 0
0 0 0 0 0 0 0 0 0 0 0 0 0 0 0 0 0 0 0 0 0 0 0 0 0 0 0 0 0 0 0 0 0 0 0 0 0 0 0 0 0 0 0 0 0 0 0 0 0
0 0 0 0 0 0 0 0 0 0 0 0 0 0 0 0 0 0 0 0 0 0 0 0 0 0 0 0 0 0 0 0 0 0 0 0 0 0 0 0 0 0 0 0 0 0 0 0 0
0 0 0 0 0 0 0 0 0 0 0 0 0 0 0 0 0 0 0 0 0 0 0 0 0 0 0 0 0 0 0 0 0 0 0 0 0 0 0 0 0 0 0 0 0 0 0 0 0
0 0 0 0 0 0 0 0 0 0 0 0 0 0 0 0 0 0 0 0 0 0 0 0 0 0 0 0 0 0 0 0 0 0 0 0 0 0 0 1 2 1 0 0 0 0 0 0 0
0 0 0 0 0 0 0 0 0 0 0 0 0 0 1 1 1 1 1 0 0 0 0 0 0 0 0 0 0 0 0 0 0 1 2 1 0 0 0 3 6 4 1 0 0 0 0 0 0
0 0 0 0 0 0 0 0 0 0 0 0 0 1 2 3 4 4 2 1 1 1 0 0 0 0 0 0 0 1 2 2 2 3 5 4 3 2 2 5 8 6 1 0 1 1 1 1 1
0 0 0 0 0 0 0 0 0 0 0 0 1 3 6 7 7 7 5 3 2 2 0 0 1 1 1 1 1 3 5 6 6 6 8 9 10 9 7 9 10 9 9 9 10 10 7 5 4
0 0 0 0 0 0 0 0 0 0 0 0 3 11 16 14 11 9 7 5 3 1 0 1 2 3 5 6 6 5 6 8 9 9 9 11 15 16 17 22 23 21 24 29 31 31 25 20 17
0 0 0 0 0 0 0 0 0 0 1 1 7 19 27 24 17 13 11 8 5 2 2 4 6 9 14 17 15 10 8 9 11 11 9 10 14 17 23 34 40 39 42 49 54 55 53 48 43
0 0 0 0 0 0 0 0 1 1 2 4 12 26 35 33 25 21 19 14 8 5 6 8 12 18 26 28 23 15 11 11 12 11 11 11 13 17 24 33 43 49 56 66 69 70 74 74 72
0 0 0 0 0 0 0 1 5 6 7 11 22 37 46 43 34 28 25 19 11 7 8 10 16 25 32 32 25 17 13 12 13 13 13 14 15 19 26 32 40 53 68 77 80 81 84 85 85
0 0 0 0 0 0 0 4 12 17 17 25 40 52 56 51 43 36 29 22 14 10 10 12 17 24 31 31 26 21 17 16 16 15 14 15 14 17 25 33 42 57 69 76 81 86 87 88 88
0 0 0 0 0 0 0 7 22 29 32 40 51 59 62 59 55 48 38 28 21 17 17 20 23 27 31 31 29 25 22 19 15 13 13 12 10 10 15 22 34 48 58 64 73 81 86 90 90
0 0 0 0 0 0 1 10 26 37 41 47 53 60 67 69 67 61 50 41 36 33 33 35 35 34 33 31 28 24 19 14 10 9 8 7 5 5 7 11 19 30 40 51 63 71 80 86 88
0 0 0 0 0 0 1 9 22 34 43 51 57 61 67 74 76 73 66 59 56 53 50 46 40 34 28 23 20 16 12 7 5 4 4 4 3 4 5 6 10 16 27 41 53 61 68 75 80
0 0 0 0 0 0 1 4 11 23 38 52 60 63 68 77 82 82 78 74 72 67 56 45 35 27 18 10 8 8 7 6 5 4 3 3 3 4 4 5 5 8 16 26 38 48 55 62 68
0 0 0 0 0 0 0 1 3 11 27 45 57 65 73 82 85 82 78 76 73 65 51 37 30 24 16 7 5 6 7 6 5 5 5 5 5 4 4 3 3 3 6 12 21 30 40 50 55
0 0 0 0 0 0 0 0 1 6 16 32 50 63 73 79 77 71 66 64 61 51 38 31 31 32 26 18 15 14 11 8 7 6 6 6 6 5 3 2 2 1 1 4 7 14 26 38 43
0 0 0 0 0 0 0 0 2 4 9 19 35 51 60 61 58 53 49 46 42 36 29 29 39 48 47 40 33 26 17 12 9 8 7 6 4 3 1 1 1 0 0 1 2 7 16 26 32
0 0 0 0 0 0 0 0 1 3 4 9 19 32 40 40 37 34 32 32 31 30 30 36 51 64 67 61 53 43 32 23 16 10 6 3 1 1 1 0 0 0 0 0 2 4 9 17 22
0 0 0 0 0 0 0 0 0 1 2 4 10 17 24 25 22 20 19 21 25 30 37 47 61 73 78 76 70 62 50 36 23 13 6 2 0 0 1 0 0 0 0 0 1 1 4 9 13
0 0 0 0 0 0 0 0 0 0 0 1 5 10 13 14 13 12 11 12 16 24 34 46 60 72 79 80 77 71 60 45 31 22 13 6 2 2 1 0 0 0 0 0 0 0 1 4 6
0 0 0 0 0 0 0 0 0 0 0 0 2 5 6 7 8 8 7 6 8 14 23 33 45 58 65 67 66 62 54 46 40 35 27 18 13 7 2 0 0 0 0 0 0 0 1 2 3
0 0 0 0 0 0 0 0 1 0 0 0 0 1 2 2 3 4 4 4 5 9 14 19 26 33 38 40 43 41 37 36 38 41 39 34 27 17 6 1 0 0 0 0 0 0 0 1 1
0 0 0 0 0 0 0 0 0 0 0 0 0 0 0 0 0 1 2 3 3 4 6 8 10 12 14 17 20 22 21 22 26 33 38 38 35 25 12 3 0 0 0 0 0 0 0 0 0
0 0 0 0 0 0 0 0 0 0 0 0 0 0 0 0 0 0 1 1 1 1 1 2 3 3 4 6 8 11 14 15 17 23 31 35 34 28 15 4 1 0 0 0 0 0 0 0 0

GEFSSGP_con_probscp_048.txt.gz
Probability
0 0 0 1 4 5 2 0 0 0 0 0 0 0 0 0 0 0 0 0 0 0 0 0 0 0 0 0 0 0 0 0 0 0 0 0 0 0 0 0 0 0 0 0 0 0 0 0 0
0 0 0 1 2 2 1 0 0 0 0 0 0 0 0 0 0 0 0 0 0 0 0 0 0 0 0 0 0 0 0 0 0 0 0 0 0 0 0 0 0 0 0 0 0 0 0 0 0
0 0 0 1 1 1 0 0 0 0 0 0 0 0 0 0 0 0 0 0 0 0 0 0 0 0 0 0 0 0 0 0 0 0 0 0 0 0 0 0 0 0 0 0 0 0 0 0 0
0 0 0 0 0 0 0 0 0 0 0 0 0 0 0 0 0 0 0 0 0 0 0 0 0 0 0 0 0 0 0 0 0 0 0 0 0 0 0 0 0 0 0 0 0 0 0 0 0
0 0 0 0 0 0 0 0 0 0 0 0 0 0 0 0 0 0 0 0 0 1 0 0 0 0 0 0 0 0 0 0 0 0 0 0 0 0 0 0 0 0 0 0 0 0 0 0 0
0 0 0 0 0 0 0 0 0 0 0 0 0 0 0 0 0 0 0 0 2 4 2 0 0 0 0 0 0 0 0 0 0 0 0 0 0 0 0 0 0 0 0 0 0 0 0 0 1
0 0 0 0 0 0 0 0 0 0 0 0 0 0 0 0 0 0 0 0 4 8 6 1 0 0 0 0 0 0 0 0 0 0 0 0 0 0 2 4 5 4 3 2 3 3 3 4 4
0 0 0 0 0 0 0 0 0 0 0 0 0 0 1 0 0 0 0 1 5 10 8 3 1 0 0 0 0 0 1 2 1 1 1 1 0 4 13 20 18 14 11 12 13 14 15 14 13
0 0 0 0 0 0 0 0 0 0 0 1 3 3 1 0 0 0 0 1 5 9 8 6 6 3 0 3 6 5 5 8 7 7 10 11 7 10 25 37 38 35 35 36 35 34 32 27 23
0 0 0 0 0 0 0 0 0 0 1 5 9 8 2 0 1 0 0 2 6 9 8 14 20 13 4 13 22 15 15 25 23 20 30 34 23 14 23 43 56 61 63 61 56 49 43 36 29
0 0 0 0 0 0 0 0 0 2 4 9 13 11 4 4 6 5 4 9 13 12 9 22 36 28 14 26 37 27 27 46 46 40 52 59 47 27 26 48 68 75 75 70 62 56 50 41 33
0 0 0 0 0 0 0 0 1 4 6 9 11 10 8 11 15 15 14 23 28 21 16 32 53 48 32 37 45 36 35 52 60 61 67 73 70 55 50 63 75 77 75 70 64 63 62 51 41
0 0 0 0 0 0 0 0 1 5 7 6 7 11 16 21 28 33 35 43 48 39 34 50 69 69 57 53 55 48 44 52 64 72 75 80 83 78 73 76 79 77 74 70 67 68 70 65 56
0 0 0 0 0 0 0 0 1 5 7 6 6 14 22 30 42 53 62 69 68 58 58 71 82 83 78 71 67 62 58 60 67 74 78 80 83 82 78 75 75 72 67 65 62 60 65 67 65
0 0 0 0 0 0 0 0 1 4 7 7 10 17 28 41 54 67 80 86 82 77 80 85 87 89 88 82 77 71 67 69 74 77 79 79 77 73 68 64 60 57 54 55 52 51 56 61 62
0 0 0 0 0 0 0 0 1 3 6 9 13 21 36 52 61 70 84 91 90 91 93 91 90 92 91 86 80 71 67 70 73 73 73 73 68 60 54 49 43 40 39 39 38 42 48 52 53
0 0 0 0 0 0 0 0 1 2 5 8 12 23 42 60 67 73 83 90 94 96 95 93 93 95 93 87 77 66 62 62 58 56 59 60 51 42 38 34 27 25 26 24 25 31 37 40 42
0 0 0 0 0 0 0 0 0 2 4 6 11 25 47 65 74 78 83 89 93 94 94 94 94 93 89 81 69 59 55 49 40 41 46 43 32 25 22 19 15 14 14 14 16 20 24 28 30
0 0 0 0 0 0 0 0 0 2 5 10 18 33 54 71 79 82 86 89 90 91 92 92 90 87 82 74 64 58 53 39 28 31 35 29 19 14 11 9 8 7 6 7 9 12 14 18 21
0 0 0 0 0 0 0 0 1 3 10 20 31 43 59 73 80 83 85 87 88 89 90 89 85 81 79 72 62 57 51 34 23 26 29 24 16 11 8 7 6 4 3 4 5 8 9 11 13
0 0 0 0 0 0 0 0 3 9 20 30 39 47 58 70 77 79 81 83 87 88 88 86 84 83 81 74 64 60 55 40 30 32 36 32 21 13 10 9 7 5 4 4 4 5 6 6 6
0 0 0 0 0 0 0 0 6 19 32 38 41 48 58 65 73 76 77 79 81 81 82 83 85 86 84 78 73 73 68 58 51 50 50 43 30 19 15 14 12 10 7 5 4 3 3 4 4
0 0 0 0 0 0 0 0 8 25 40 44 47 54 60 63 68 72 73 73 73 73 73 76 82 86 86 84 82 83 81 76 73 69 62 53 41 31 26 23 21 17 12 8 6 3 3 4 4
0 0 0 0 0 0 0 1 9 27 43 50 54 58 59 60 62 63 62 62 64 64 65 72 80 85 86 86 86 87 87 86 84 80 73 63 54 47 41 36 32 25 18 12 7 3 2 3 4
0 0 0 0 0 0 0 3 12 29 44 51 53 53 50 49 48 46 44 45 48 50 56 67 76 81 82 84 86 88 89 89 87 85 82 76 68 63 59 51 43 32 23 16 10 6 3 3 3
0 0 0 0 0 0 2 10 21 29 35 38 39 37 34 30 27 25 24 25 27 29 36 47 57 63 65 70 76 79 81 82 81 82 84 82 77 73 69 63 52 40 29 20 15 11 6 3 2
0 0 0 0 0 0 4 17 28 27 22 21 20 19 16 12 10 9 8 9 9 11 13 20 28 33 37 44 50 54 57 60 61 67 73 75 75 73 70 67 60 50 39 29 21 16 9 4 2
0 0 0 0 0 0 3 15 30 32 22 14 10 7 5 3 2 1 1 1 1 1 2 4 8 11 13 17 21 23 27 31 35 41 49 55 59 62 63 64 62 56 46 35 27 19 11 5 4
0 0 0 0 0 0 1 12 31 37 27 15 7 3 1 0 0 0 0 0 0 0 0 0 1 2 3 4 6 7 8 11 15 19 23 30 37 44 49 52 54 51 42 33 26 17 8 4 4
0 0 0 0 0 0 3 15 32 36 26 14 6 1 0 0 0 0 0 0 0 0 0 0 0 0 0 1 2 3 3 4 5 6 9 14 21 29 38 43 44 42 35 28 22 13 5 3 3

GEFSSGP_con_probscp_054.txt.gz
Probability
0 0 0 0 0 0 0 0 0 0 0 0 0 0 0 0 0 0 0 0 0 0 0 0 0 0 0 0 0 0 0 0 0 0 0 0 0 0 0 0 0 0 0 0 0 0 0 0 0
0 0 0 0 0 0 0 0 0 0 0 0 0 0 0 0 0 0 0 0 0 0 0 1 1 0 0 0 0 0 0 0 0 0 0 0 0 0 0 0 0 0 0 0 0 0 0 0 0
0 0 0 0 0 0 0 0 0 0 0 0 0 0 0 0 0 0 0 0 0 0 1 3 3 2 0 0 0 0 0 0 0 0 0 0 0 0 0 0 0 0 0 0 0 0 0 0 0
0 0 0 0 0 0 0 0 0 0 0 0 0 0 0 0 0 0 0 0 0 0 1 4 6 3 1 0 0 0 0 0 0 0 0 0 0 0 0 0 0 0 0 0 0 0 0 0 0
0 0 0 0 0 0 0 0 0 0 0 0 0 0 0 0 1 1 0 0 0 1 3 6 8 5 1 0 0 0 0 0 0 0 0 0 0 0 0 0 0 0 0 0 0 0 0 0 0
0 0 0 0 0 0 0 0 0 0 0 0 0 0 0 0 1 1 0 0 0 2 5 7 8 6 4 3 2 1 0 0 0 0 0 0 0 0 0 0 0 0 0 0 0 0 0 0 0
0 0 0 0 0 0 0 0 1 0 0 0 0 0 0 0 1 1 0 0 0 2 5 7 7 6 5 5 3 1 0 0 0 0 0 0 0 0 0 0 0 0 0 0 0 0 0 0 0
0 0 0 0 0 0 0 0 1 1 1 1 0 0 0 0 1 3 3 2 2 2 5 7 6 5 4 3 2 1 0 0 0 0 0 0 0 0 0 0 0 0 0 1 2 2 1 0 0
0 0 0 0 0 0 0 0 0 2 4 3 1 1 0 2 7 13 15 11 7 5 5 6 5 4 3 1 1 0 0 0 0 0 0 0 0 0 0 0 0 1 1 3 6 7 6 4 3
0 0 0 0 0 0 0 0 0 2 4 5 4 3 3 5 13 24 32 29 19 10 6 5 5 4 3 3 1 0 0 0 1 1 1 1 1 0 0 0 1 3 3 3 6 9 10 10 11
0 0 0 0 0 0 0 0 0 0 2 4 6 7 8 9 14 25 40 46 35 19 9 6 6 5 4 4 3 1 1 2 3 2 2 2 2 1 0 1 1 2 3 4 5 8 11 13 15
0 0 0 0 0 0 0 0 1 1 2 5 9 11 12 12 13 22 38 52 50 36 21 11 8 8 6 5 5 5 4 5 6 4 2 4 4 2 1 0 1 1 3 5 5 6 8 9 11
0 0 0 0 0 0 0 1 2 3 7 12 15 15 15 15 18 25 38 54 63 55 39 26 20 17 13 13 15 14 12 12 11 9 8 11 11 7 3 1 1 2 3 4 4 4 4 4 3
0 0 0 0 0 0 0 1 3 7 15 22 22 18 17 19 24 34 47 62 72 70 60 53 47 39 34 35 35 29 24 21 19 18 20 23 22 16 9 5 3 3 3 2 1 1 1 1 0
0 0 0 0 0 0 0 1 3 9 19 26 25 21 20 23 32 43 55 67 75 76 75 75 71 65 61 61 57 49 40 35 31 29 30 33 31 24 15 9 5 4 4 1 0 0 0 0 0
0 0 0 0 0 0 0 1 2 9 18 27 30 29 29 33 41 50 57 65 71 73 75 77 78 76 75 74 70 63 54 45 39 36 34 35 33 26 18 11 7 6 5 2 0 0 0 0 0
0 0 0 0 0 0 0 1 4 11 21 31 38 41 45 47 49 52 55 60 64 65 65 68 72 73 72 70 67 61 51 41 36 32 29 29 27 22 16 11 8 6 4 1 0 0 0 0 0
0 0 0 0 0 0 1 4 9 18 28 37 44 51 55 54 51 51 52 54 57 57 55 57 60 60 58 57 54 47 36 27 22 20 18 18 16 14 11 8 6 3 2 0 0 0 0 0 0
0 0 0 0 0 0 1 6 15 24 32 38 45 54 57 52 49 47 44 45 47 46 44 42 41 40 39 39 37 30 21 14 11 9 8 9 8 7 7 5 2 1 0 0 0 0 0 0 0
0 0 0 0 0 0 0 5 14 23 31 36 42 49 51 48 44 38 33 32 34 33 30 25 23 22 21 20 19 15 11 9 7 5 4 5 5 4 4 3 1 0 0 0 0 0 0 0 0
0 0 0 0 0 0 0 2 7 16 28 38 41 41 41 39 35 28 22 21 21 21 19 15 12 11 10 8 6 6 8 11 9 6 4 4 4 3 3 2 1 0 0 0 0 0 0 0 0
0 0 0 0 0 0 0 0 3 11 24 34 33 30 28 25 21 17 13 12 12 13 13 10 7 6 5 4 4 6 11 14 13 8 5 4 3 3 3 3 2 1 0 0 0 0 0 0 0
0 0 0 0 0 0 0 0 1 8 16 18 16 14 13 11 9 7 6 6 6 7 7 6 4 3 3 3 5 8 11 13 12 8 4 3 3 3 4 5 4 2 0 0 0 0 0 0 0
0 0 0 0 0 0 0 0 0 3 6 5 3 3 3 2 2 1 1 1 2 2 2 2 2 2 2 2 4 6 8 8 7 5 2 2 2 2 3 4 5 4 2 0 0 0 0 0 0
0 0 0 0 0 0 0 0 0 0 1 0 0 0 0 0 0 0 0 0 0 0 0 1 1 1 1 1 1 2 4 3 1 1 1 0 1 1 1 2 4 4 3 1 0 0 0 0 0
0 0 0 0 0 0 0 0 0 0 1 0 0 0 0 0 0 0 0 0 0 0 0 0 0 0 0 0 0 0 1 0 0 0 0 0 0 0 0 1 1 1 1 0 0 0 0 0 0
0 0 0 0 0 0 0 0 0 0 1 1 0 0 0 0 0 0 0 0 0 0 0 0 0 0 0 0 0 0 0 0 0 0 0 0 0 0 0 0 0 0 0 0 0 0 0 0 0
0 0 0 0 0 0 0 0 0 0 1 1 1 0 0 0 0 0 0 0 0 0 0 0 0 0 0 0 0 0 0 0 0 0 0 0 0 0 0 0 1 0 0 0 0 0 0 0 0
0 0 0 0 0 0 0 0 0 0 0 0 0 0 0 0 0 0 0 0 0 0 0 0 0 0 0 0 0 0 0 0 0 0 0 0 0 0 0 0 0 0 0 0 0 0 0 0 0
0 0 0 0 0 0 0 0 0 0 0 0 0 0 0 0 0 0 0 0 0 0 0 0 0 0 0 0 0 0 0 0 0 0 0 0 0 0 0 0 0 0 0 0 0 0 0 0 0

GEFSSGP_con_probscp_060.txt.gz
Probability
0 0 0 0 0 0 0 0 0 0 0 0 0 0 0 0 0 0 0 0 0 0 0 0 0 0 0 0 0 0 0 0 0 0 0 0 0 0 0 0 0 0 0 0 0 0 0 0 0
0 0 0 0 0 0 0 0 0 0 0 0 0 0 0 0 0 0 0 0 0 0 0 0 0 0 0 0 0 0 0 0 0 0 0 0 0 0 0 0 0 0 0 0 0 0 0 0 0
0 0 0 0 0 0 0 0 0 0 0 0 0 0 0 0 0 0 0 0 0 0 0 2 4 4 2 0 1 1 0 0 0 0 0 0 0 0 0 0 0 0 0 0 0 0 0 0 0
0 0 0 0 0 0 0 0 0 0 0 0 0 0 0 0 0 0 0 0 1 1 1 6 15 15 8 4 3 2 1 0 1 1 0 0 0 0 0 0 0 0 0 0 0 0 0 0 0
0 0 0 0 0 0 0 0 0 0 0 0 0 0 0 0 0 0 0 1 3 4 5 13 26 28 20 13 8 6 3 2 1 1 0 0 0 0 0 0 0 0 0 0 0 0 0 0 0
0 0 0 0 0 0 0 0 0 0 0 0 0 0 0 0 0 0 1 3 7 11 14 20 30 34 31 26 19 14 9 4 1 1 0 0 0 0 0 0 0 0 0 0 0 0 0 0 0
0 0 0 0 0 0 0 0 0 0 0 0 0 0 0 0 0 0 1 4 10 18 24 27 32 36 38 36 32 25 15 7 2 0 0 0 0 0 0 0 0 0 0 0 0 0 0 0 0
0 0 0 0 0 0 0 0 0 0 0 0 0 0 1 1 1 2 4 8 13 21 28 34 40 41 41 41 38 29 17 7 2 1 0 0 0 0 0 0 0 0 0 0 0 0 0 0 0
0 0 0 0 0 0 0 0 0 0 0 0 0 0 4 9 10 9 11 16 21 26 30 36 43 45 44 42 38 28 16 7 3 1 0 0 1 1 0 0 0 0 0 0 0 0 0 0 0
0 0 0 0 0 0 0 0 0 0 0 0 1 4 14 27 27 22 20 22 26 30 33 37 44 47 48 44 36 27 18 10 4 2 1 2 2 2 1 0 0 0 0 0 0 1 1 0 1
0 0 0 0 0 0 0 0 0 0 0 1 2 11 30 47 46 37 30 26 28 33 38 43 49 51 49 43 35 29 23 15 8 5 5 5 4 2 1 0 0 1 1 0 1 2 2 2 2
0 0 0 0 0 0 0 0 0 0 0 2 6 20 43 57 56 48 41 36 34 36 42 51 55 53 46 40 36 32 28 20 13 11 10 9 6 4 2 1 1 2 2 1 2 3 3 3 3
0 0 0 0 0 0 0 0 1 1 1 6 16 31 48 56 55 51 48 46 43 41 46 54 55 50 43 38 35 33 30 25 19 15 14 13 11 9 6 3 2 3 3 2 2 3 3 4 4
0 0 0 0 0 0 0 2 3 4 6 15 28 41 48 49 47 45 46 48 47 46 49 53 52 46 39 33 31 31 30 28 25 20 17 16 15 14 11 6 3 2 1 2 2 2 2 3 5
0 0 0 0 0 0 0 4 9 13 17 26 36 42 43 42 39 36 39 45 46 47 49 49 47 43 38 32 30 32 32 30 28 24 21 18 15 15 13 9 4 1 1 2 2 3 2 3 3
0 0 0 0 0 0 1 5 13 19 24 32 38 39 38 36 33 30 34 42 46 46 45 42 41 40 37 34 34 37 36 31 27 27 25 20 16 15 13 9 5 3 2 4 5 5 4 2 2
0 0 0 0 0 0 1 6 12 17 24 32 37 36 33 30 26 25 30 39 44 43 40 37 34 33 33 33 34 38 38 30 24 23 22 20 17 15 11 8 5 4 4 5 7 6 5 3 2
0 0 0 0 0 0 2 6 9 13 20 28 31 30 28 25 20 20 26 33 36 36 34 30 26 24 24 24 25 29 30 24 19 17 15 15 14 12 9 7 5 4 4 5 5 4 2 2 2
0 0 0 0 0 0 2 5 8 11 15 20 21 21 22 21 18 18 23 25 25 24 23 20 16 14 14 13 15 17 17 15 13 11 9 8 8 7 6 5 4 4 4 4 3 1 0 1 1
0 0 0 0 0 0 1 4 7 9 10 12 11 12 14 16 17 17 17 17 15 13 11 9 6 6 5 6 8 8 7 7 6 5 4 3 3 3 4 4 4 4 3 3 2 1 0 0 0
0 0 0 0 0 0 1 2 5 6 7 7 7 7 10 11 11 10 9 8 7 6 4 2 1 1 1 2 2 3 2 2 1 1 1 1 1 1 2 3 3 3 3 2 1 0 0 0 0
0 0 0 0 0 0 0 1 2 3 3 3 3 5 5 5 4 4 3 2 2 1 1 0 0 0 0 0 0 0 0 0 0 0 0 0 0 0 1 2 2 2 2 1 0 0 0 0 0
0 0 0 0 0 0 0 0 1 2 1 0 0 1 2 1 0 0 0 0 0 0 0 0 0 0 0 0 0 0 0 0 0 0 0 0 0 0 0 1 1 0 0 0 0 0 0 0 0
0 0 0 0 0 0 0 0 0 1 1 0 0 0 0 0 0 0 0 0 0 0 0 0 0 0 0 0 0 0 0 0 0 0 0 0 0 0 0 0 0 0 0 0 0 0 0 0 0
0 0 0 0 0 0 0 0 0 0 0 0 0 0 0 0 0 0 0 0 0 0 0 0 0 0 0 0 0 0 0 0 0 0 0 0 0 0 0 0 0 0 0 0 0 0 0 0 0
0 0 0 0 0 0 0 0 0 0 0 0 0 0 0 0 0 0 0 0 0 0 0 0 0 0 0 0 0 0 0 0 0 0 0 0 0 0 0 0 0 0 0 0 0 0 0 0 0
0 0 0 0 0 0 0 0 0 0 0 0 0 0 0 0 0 0 0 0 0 0 0 0 0 0 0 0 0 0 0 0 0 0 0 0 0 0 0 0 0 0 0 0 0 0 0 0 0
0 0 0 0 0 0 0 0 0 0 0 0 0 0 0 0 0 0 0 0 0 0 0 0 0 0 0 0 0 0 0 0 0 0 0 0 0 0 0 0 0 0 0 0 0 0 0 0 0
0 0 0 0 0 0 0 0 0 0 0 0 0 0 0 0 0 0 0 0 0 0 0 0 0 0 0 0 0 0 0 0 0 0 0 0 0 0 0 0 0 0 0 0 0 0 0 0 0
0 0 0 0 0 0 0 0 0 0 0 0 0 0 0 0 0 0 0 0 0 0 0 0 0 0 0 0 0 0 0 0 0 0 0 0 0 0 0 0 0 0 0 0 0 0 0 0 0

GEFSSGP_con_probscp_066.txt.gz
Probability
0 0 0 0 0 0 0 0 0 0 0 0 0 0 0 0 0 0 0 0 0 2 3 2 0 0 0 0 0 0 0 1 0 0 0 0 0 0 0 0 0 0 0 0 0 0 0 0 0
0 0 0 0 0 0 0 0 0 0 0 0 0 0 0 0 0 0 0 0 0 2 3 1 0 0 0 0 0 0 0 1 0 0 0 0 0 0 0 0 0 0 0 0 0 0 0 0 0
0 0 0 0 0 0 0 0 0 0 0 0 0 0 0 0 0 0 0 0 0 1 1 0 0 0 0 0 0 0 0 0 0 0 0 0 0 0 0 0 0 0 0 0 0 0 0 0 0
0 0 0 0 0 0 0 0 0 0 0 0 0 0 0 0 0 0 0 0 0 0 0 0 0 0 0 0 0 0 0 0 0 0 0 0 0 0 0 0 0 0 0 0 0 0 0 0 0
0 0 0 0 0 0 0 0 0 0 0 0 0 0 0 0 1 1 1 0 0 0 0 0 0 0 0 0 0 0 0 1 1 0 0 1 1 1 0 0 0 0 0 0 0 0 0 0 0
0 0 0 0 0 0 0 0 0 0 0 0 0 0 0 0 1 2 2 1 0 0 0 0 0 1 1 1 0 0 1 3 3 2 2 2 1 1 0 0 0 0 0 0 0 0 0 0 0
0 0 0 0 0 0 0 0 0 0 0 0 0 0 1 2 3 4 4 2 1 0 0 0 1 2 2 1 0 0 2 5 7 6 4 3 1 0 0 0 0 0 0 0 0 0 0 0 0
0 0 0 0 0 0 0 0 0 0 0 0 0 0 3 9 13 14 11 6 3 1 1 0 1 2 2 2 3 3 4 6 9 9 9 7 3 1 1 1 2 1 0 0 0 0 0 0 0
0 0 0 0 0 0 0 0 0 0 0 0 0 2 10 24 35 35 29 20 12 7 4 3 3 4 3 5 10 10 9 11 13 16 19 18 12 7 5 7 9 5 1 0 0 0 0 0 0
0 0 0 0 0 0 0 0 0 0 0 0 1 5 14 32 50 56 51 41 30 21 14 10 10 11 10 13 19 20 22 25 25 29 38 39 33 26 18 18 21 15 7 4 3 1 0 0 1
0 0 0 0 0 0 0 0 0 1 1 2 4 6 13 27 45 58 61 55 46 34 25 21 22 25 25 26 31 36 42 47 45 49 60 64 60 53 43 37 34 27 21 16 13 9 5 3 2
0 0 0 0 0 0 0 0 1 3 5 7 9 11 14 22 34 49 60 60 52 41 35 34 42 49 51 49 50 54 61 65 63 67 75 79 79 74 68 60 49 40 36 31 25 19 13 9 7
0 0 0 0 0 0 1 1 4 7 10 14 20 25 27 32 39 49 60 63 57 49 47 51 62 71 72 70 66 65 69 72 73 76 80 81 82 79 76 73 63 50 44 40 33 24 18 14 12
0 0 0 0 0 0 2 4 7 12 17 25 36 45 49 51 55 59 64 66 62 58 58 63 69 75 78 76 69 63 63 68 71 75 79 79 77 75 73 73 67 55 48 45 38 27 20 17 15
0 0 0 0 0 0 2 6 13 17 23 34 48 59 65 68 68 69 71 71 68 66 65 63 63 67 73 73 65 56 53 56 62 69 73 72 68 65 65 63 60 54 50 47 39 29 23 19 15
0 0 0 0 0 0 2 7 16 21 26 34 46 57 66 71 72 72 73 72 71 72 70 62 56 59 65 64 56 47 43 45 51 55 58 56 52 51 52 51 50 49 48 42 33 25 20 17 15
0 0 0 0 0 0 3 9 15 21 26 30 37 46 54 61 65 66 67 67 67 69 69 62 55 55 54 49 44 39 36 36 38 40 41 39 36 37 41 42 41 41 39 34 25 19 15 13 11
0 0 0 0 0 1 4 8 12 15 18 22 26 30 34 40 45 51 56 57 56 58 61 58 53 49 42 36 33 31 29 27 27 28 29 26 27 30 35 35 33 31 31 27 21 14 10 8 6
0 0 0 0 0 1 3 6 7 7 8 12 16 17 18 21 27 36 43 45 42 42 44 43 40 36 31 27 25 23 22 19 17 18 19 18 20 25 28 27 24 23 24 22 16 11 7 6 5
0 0 0 0 0 0 1 2 2 2 2 5 9 12 14 16 20 25 29 29 26 25 24 22 21 21 19 17 15 13 13 12 10 10 11 11 14 18 20 19 17 17 18 16 13 10 7 6 6
0 0 0 0 0 0 0 0 0 0 1 2 5 9 12 14 14 14 15 14 13 12 10 9 10 10 8 6 5 5 6 7 6 6 7 6 7 11 14 14 14 14 13 11 9 8 6 6 6
0 0 0 0 0 0 0 0 1 0 0 1 2 4 6 6 6 5 4 5 5 5 5 7 7 7 4 1 1 2 4 5 5 4 3 2 3 5 9 12 14 15 13 9 7 5 5 5 4
0 0 0 0 0 0 0 1 2 1 0 0 0 0 1 1 1 1 1 2 2 2 4 5 5 5 3 1 0 1 3 5 4 3 1 1 1 3 5 9 14 17 16 14 13 11 10 8 7
0 0 0 0 0 0 0 1 2 1 1 1 0 0 0 1 1 1 1 2 1 1 3 3 4 4 3 2 1 2 4 6 5 2 2 2 1 1 3 6 11 16 18 21 23 21 18 16 15
0 0 0 0 0 0 0 1 2 2 1 1 0 0 1 1 2 2 2 3 2 1 1 1 2 3 3 3 3 4 6 6 4 2 2 2 2 1 1 4 7 11 14 19 23 25 25 25 25
0 0 0 0 0 0 0 1 2 2 1 0 0 1 1 1 1 1 1 2 2 1 0 0 1 1 2 2 4 5 6 4 3 2 1 1 2 3 2 2 4 6 8 11 16 21 25 29 32
0 0 0 0 0 0 0 1 1 1 0 0 0 0 0 0 0 0 0 1 1 0 0 0 1 1 1 1 2 4 4 3 3 3 2 1 2 3 3 1 2 3 4 5 8 13 18 25 28
0 0 0 0 0 0 0 1 1 0 0 0 0 0 0 0 0 0 0 0 0 0 0 0 1 2 1 1 1 1 2 3 3 3 3 2 3 3 2 1 0 1 2 2 3 5 9 13 17
0 0 0 0 0 0 0 0 0 0 0 0 0 0 0 0 0 0 0 0 0 0 0 0 1 2 1 0 0 0 1 2 3 3 3 3 3 3 2 1 0 0 0 1 1 1 3 5 7
0 0 0 0 0 0 0 0 0 0 0 0 0 0 0 0 0 0 0 0 0 0 0 0 0 1 0 0 0 0 0 1 3 3 3 3 3 3 2 1 0 0 0 0 0 0 1 2 3

GEFSSGP_con_probscp_072.txt.gz
Probability
0 0 0 0 0 1 1 1 0 0 0 0 0 0 0 0 0 0 3 18 37 35 17 11 10 7 5 3 1 0 0 0 0 0 0 0 0 0 0 0 0 0 0 0 0 0 0 0 0
0 0 0 0 0 0 0 0 0 0 0 0 0 0 0 0 0 0 5 22 38 30 13 9 10 8 5 3 1 0 0 0 0 0 0 0 0 0 0 0 0 0 0 0 0 0 0 0 0
0 0 0 0 1 1 0 0 0 0 0 0 0 0 0 0 0 1 8 25 35 22 8 8 10 9 5 2 1 0 1 1 1 0 0 0 0 0 0 0 0 0 0 0 0 0 0 0 0
0 0 0 0 1 1 0 0 0 0 0 0 1 2 1 0 0 2 9 23 27 18 9 8 10 9 5 2 0 1 2 2 2 1 0 0 0 0 0 0 0 0 0 0 0 0 0 0 0
0 0 0 0 0 0 0 0 0 0 0 0 3 5 4 2 0 1 7 15 20 23 19 13 13 12 8 4 2 1 3 3 4 3 1 1 1 0 0 1 1 1 1 0 1 1 1 1 0
0 0 0 0 0 0 0 0 0 0 0 1 4 7 7 3 1 1 3 7 20 34 32 21 18 16 11 8 5 3 4 4 5 5 4 3 3 1 1 2 3 4 3 2 2 2 2 2 1
0 0 0 0 0 0 0 0 0 0 0 0 2 6 8 6 2 0 1 5 26 47 42 25 20 17 13 10 9 7 7 7 6 5 5 5 4 4 4 7 9 10 10 9 6 5 4 4 3
0 0 0 0 0 0 0 0 0 0 1 2 4 7 10 8 2 0 0 7 32 55 48 29 22 19 12 11 14 16 15 14 12 10 9 8 6 8 13 18 23 26 25 23 16 11 9 8 7
0 0 0 0 0 0 0 0 0 1 4 8 10 11 12 10 5 2 1 9 34 57 52 36 31 24 13 15 26 30 26 25 23 24 26 23 14 13 23 35 47 50 46 41 33 25 21 17 13
0 0 0 0 0 0 0 0 1 3 10 16 16 14 13 13 12 9 7 15 39 58 53 48 47 33 16 25 44 42 38 43 41 41 51 48 32 24 34 55 70 72 67 59 52 44 36 25 15
0 0 0 0 0 0 1 2 4 8 15 20 20 16 13 17 24 25 23 33 51 57 53 58 61 46 29 40 57 51 49 64 62 58 68 71 58 47 53 72 84 84 80 74 66 59 48 31 20
0 0 0 0 0 0 1 3 8 14 19 23 27 24 21 26 35 43 48 58 64 59 54 63 71 64 52 56 65 61 62 74 76 75 79 84 81 75 75 83 89 89 86 80 71 65 57 42 30
0 0 0 0 0 0 2 5 10 17 23 28 38 43 43 46 53 61 69 76 75 67 64 72 80 79 73 72 74 74 74 77 81 83 86 88 90 89 87 88 90 90 88 81 72 67 64 53 43
0 0 0 0 0 1 4 7 11 17 25 36 52 64 68 72 76 79 84 87 84 78 78 84 87 87 86 83 81 80 80 80 81 83 86 87 88 90 90 89 88 87 84 79 72 68 65 59 54
0 0 0 0 0 1 4 10 15 19 27 40 58 73 82 87 89 91 93 94 90 88 91 93 92 91 91 90 86 83 82 81 81 83 84 83 83 84 86 87 85 80 75 72 68 65 61 56 51
0 0 0 0 0 0 3 11 21 26 32 45 61 74 80 85 87 88 90 92 92 94 96 96 94 93 93 92 88 83 80 77 76 77 77 76 74 73 75 77 74 68 64 60 57 56 52 45 39
0 0 0 0 0 1 5 16 26 30 38 51 61 67 68 70 73 75 77 80 85 90 92 92 92 93 92 89 84 79 75 70 67 68 69 69 67 65 65 64 60 55 53 50 45 44 42 35 30
0 0 0 0 0 3 12 23 28 30 37 48 53 52 49 49 54 59 63 65 70 77 83 85 87 89 87 83 81 78 73 67 62 62 62 60 57 55 55 53 48 44 40 38 36 34 32 29 28
0 0 0 0 1 5 14 25 27 26 28 34 37 35 31 30 36 43 49 51 54 63 71 75 78 80 77 73 73 74 71 65 58 54 51 46 40 39 39 40 39 34 27 26 26 25 23 22 23
0 0 0 0 1 4 11 22 26 22 19 20 21 20 17 18 23 27 31 33 37 43 50 56 61 61 58 55 55 57 58 54 49 42 37 31 26 25 25 28 29 25 19 17 18 17 15 15 16
0 0 0 0 1 2 6 18 26 22 13 10 10 8 7 9 12 12 14 17 20 23 27 33 38 37 36 36 35 37 38 38 36 32 28 23 19 18 20 21 21 20 16 13 14 13 12 13 14
0 0 0 0 0 0 3 12 22 21 12 6 4 3 2 3 4 4 6 8 9 10 13 19 23 23 24 25 24 24 23 23 22 22 22 19 15 14 14 15 16 17 16 13 12 12 13 15 14
0 0 0 0 0 0 1 6 13 14 9 6 4 3 3 3 3 4 4 5 4 4 6 14 21 23 25 26 25 22 19 16 15 14 15 14 11 10 10 10 12 13 13 13 12 13 16 17 17
0 0 0 0 0 0 0 2 5 6 7 8 8 5 3 2 2 3 3 3 4 5 7 16 27 33 35 36 35 32 27 21 14 10 9 9 8 7 7 8 9 9 9 10 11 12 17 19 20
0 0 0 0 0 0 0 1 2 4 6 9 9 6 3 2 2 2 4 6 9 10 13 22 34 42 43 42 41 38 31 21 11 5 4 5 5 5 5 6 6 6 5 6 8 10 14 17 18
0 0 0 0 0 0 1 2 3 3 4 6 7 5 4 3 2 2 5 8 10 12 17 24 33 39 39 37 35 32 25 14 5 1 2 3 3 3 3 3 4 4 4 4 6 8 10 13 15
0 0 0 0 0 0 1 3 3 2 1 2 3 4 3 2 1 1 3 5 6 9 13 18 22 25 27 25 22 19 16 10 5 3 2 2 3 3 2 1 1 3 3 3 3 3 5 8 11
0 0 0 0 0 0 1 2 3 1 1 1 1 2 1 1 0 0 1 2 3 5 7 8 10 12 14 14 11 9 10 10 8 6 4 4 4 3 2 1 1 2 3 2 1 0 2 4 6
0 0 0 0 0 0 0 1 2 1 0 0 0 0 0 0 0 0 0 1 1 1 2 2 3 4 5 6 4 4 6 8 8 7 5 5 4 3 2 2 1 1 2 2 1 0 0 1 2
0 0 0 0 0 0 0 0 1 0 0 0 0 0 0 0 0 0 0 0 0 0 0 1 1 1 1 1 1 2 4 6 6 5 5 4 3 2 2 2 1 0 1 2 1 0 0 0 1